Tracking 19644 objects as of 25-Apr-2019
HD Live streaming from Space Station
objects crossing your sky now

CZ-4 DEB

Track CZ-4 DEB now!
10-day predictions


NORAD ID: 26423
Int'l Code: 1999-057JU
Perigee: 567.7 km
Apogee: 639.0 km
Inclination: 97.8 °
Period: 96.6 minutes
Semi major axis: 6974 km
RCS: 0.0034 m2 (small)
Launch date: October 14, 1999
Source: People's Republic of China (PRC)
Launch site: Taiyaun Space Center, China (TSC)

Note: This is SATELLITE DEBRIS
aabbcc
Your satellite tracking list
Your tracking list is empty




NASA's NSSDC Master Catalog

Two Line Element Set (TLE):
1 26423U 99057JU  19115.03674861  .00002589  00000-0  26416-3 0  9995
2 26423  97.8221 151.9170 0051082  73.8400 286.8432 14.90554821 15840
Source of the keplerian elements: AFSPC